Weather in Prohorovka

Russia / Belgorod Oblast     51°02′03″N   36°43′59″E
temp.,
°C
wind,
m/s
gust,
m/s
humid.,
%
clouds,
%
prec.,
mm/h
press.,
hPa
HPBL,
m
19 january, wed
wed1900:00−7n81494100 0.9 1011667
03:00−8n71494100 2.8 1014637
06:00−10nnw81593100 0.9 1016536
09:00−13nnw7159370 1.0 1019350
12:00−12nnw5119321 0.0 1020297
15:00−11nnw38936 0.0 1020246
18:00−18nw3210065 0.0 102219
21:00−20nw2210030 0.0 102217
20 january, thu
thu2000:00−20w2210023 0.0 10219
03:00−20sw2210042 0.0 102119
06:00−17ssw349864 0.0 101955
09:00−13s499685 0.0 1018161
12:00−8s5119357 0.0 1017291
15:00−7s6139387 0.0 1014412
18:00−8s71496100 0.1 1013372
21:00−7s71595100 0.1 1012385
21 january, fri
fri2100:00−7s61494100 0.0 1011385
03:00−5sse61396100 0.5 1009446
06:00−3s61496100 1.6 1006607
09:00−2ssw61196100 2.3 1006543
12:00−2ssw61196100 0.3 1006704
15:00−3wsw6108961 1.5 1006808
18:00−7ssw5129463 0.0 1008288
21:00−7ssw6149494 0.0 1009389
22 january, sat
sat2200:00−8ssw6149470 0.0 1009334
03:00−8ssw51394100 0.0 1009318
06:00−12s499894 0.0 1010143
09:00−10s499694 0.2 1012204
12:00−7ssw499589 0.1 1013295
15:00−6ssw4795100 0.1 1013333
18:00−7s3697100 0.1 1016170
21:00−8sse3697100 0.1 1017107
23 january, sun
sun2300:00−9sse3597100 0.0 101970
03:00−10sse249883 0.1 102161
06:00−13se229999 0.1 102321
09:00−13ese249999 0.1 102541
12:00−7ese349698 0.0 1026153
15:00−7ene249590 0.1 1027151
18:00−10ene3896100 0.0 1029113
21:00−9ne41094100 0.0 1029197